Flag for Brazil Weather past 2 weeks in Itabuna, Bahia, Brazil

Now
82 °F

Scattered clouds.


Feels Like: 86 °F
Forecast: 69 / 85 °F
Wind: 17 mph from East

Location: Salvador Aeroporto

Current Time: Oct 20, 2014 at 3:53:48 PM

Latest Report: Oct 20, 2014 at 3:00 PM


Visibility: N/A

Pressure: 29.86 "Hg

Humidity: 66%

Dew point: 70 °F

Location of ItabunaLocation

Historic Weather in Itabuna — Graph

°F

Itabuna temperature yesterday

Maximum temperature yesterday: 82 °F (at 9:00 AM)
Minimum temperature yesterday: 73 °F (at 6:00 AM)
Average temperature yesterday: 79 °F

Past Weeks' High & Low Weather Summary

 TemperatureHumidityPressure
High84 °F (Oct 14, 3:00 PM)89% (Oct 12, 8:00 AM)30.18 "Hg (Oct 12, 8:00 AM)
Low72 °F (Oct 5, 11:00 PM)48% (Oct 7, 2:00 PM)29.86 "Hg (Oct 20, 2:00 PM)
Average78 °F70%30.03 "Hg
* Reported Oct 5 2:00 PM — Oct 20 2:00 PM, Itabuna, Weather by CustomWeather, © 2014

Note: Actual official high and low records may vary slightly from our data, if they occured in-between our weather recording intervals... More about our weather records

Advertising

Itabuna weather history for previous 24 hours

 ConditionsComfort  
Time TempWeatherWind HumidityBarometerVisibility
2:00 PM
Oct 20
82 °FScattered clouds.18 mph66%29.86 "HgN/A
1:00 PM82 °FScattered clouds.17 mph70%29.89 "HgN/A
12:00 PM82 °FBroken clouds.16 mph70%29.92 "HgN/A
11:00 AM81 °FScattered clouds.17 mph70%29.95 "HgN/A
10:00 AM82 °FScattered clouds.14 mph70%29.95 "HgN/A
9:00 AM82 °FScattered clouds.14 mph66%29.98 "HgN/A
8:00 AM81 °FScattered clouds.9 mph70%29.95 "HgN/A
7:00 AM79 °FScattered clouds.6 mph74%29.95 "HgN/A
6:00 AM73 °FPassing clouds.3 mph83%29.92 "HgN/A
5:00 AM73 °FPassing clouds.3 mph83%29.89 "HgN/A
4:00 AM73 °FPassing clouds.3 mph83%29.89 "HgN/A
3:00 AM75 °FPassing clouds.3 mph78%29.89 "HgN/A
2:00 AM75 °FPassing clouds.8 mph78%29.89 "HgN/A
12:00 AM77 °FPassing clouds.13 mph79%29.92 "HgN/A
11:00 PM
Oct 19
77 °FPassing clouds.13 mph74%29.95 "HgN/A
10:00 PM77 °FPassing clouds.14 mph74%29.98 "HgN/A
9:00 PM77 °FPassing clouds.12 mph79%29.98 "HgN/A
8:00 PM77 °FPassing clouds.15 mph74%29.95 "HgN/A
7:00 PM77 °FPassing clouds.14 mph74%29.95 "HgN/A
6:00 PM79 °FScattered clouds.15 mph74%29.92 "HgN/A
5:00 PM79 °FScattered clouds.14 mph74%29.92 "HgN/A
4:00 PM81 °FScattered clouds.17 mph70%29.89 "HgN/A
3:00 PM82 °FScattered clouds.17 mph66%29.89 "HgN/A
Weather by CustomWeather, © 2014

See weather overviewHow to use our weather pages